Terug naar catalogus

FENGYUN 1C DEB

LostPO
NORAD 32330·DEBRIS·🇨🇳 China

Gelanceerd May 10, 1999 vanaf Taiyuan Satellite Launch Center

Loading…

Volgende Passages (komende 24 uur)

TLE

VerouderdSource: Space-Track

Epoch: May 3, 2024, 18:11 UTC

1 32330U 99025CXX 24124.75831462  .00005454  00000-0  30831-2 0  9990
2 32330  98.0357 115.2768 0175501 344.6337  14.9543 14.03039670869781

Volg FENGYUN 1C DEB in realtime met AllMySat

Download on the App Store